Tindouf, Algeria

4:55 AM CET en Julio 21, 2018 (GMT +0100)
Tindouf

Tiempo Historia de DAOF - Enero, 2018

Change the Weather History Date:

Sábado, Enero 13, 2018

  Actual Average Record
Temperature  
Temperatura media 60 ° F -  
Temperatura máxima 75 ° F - - ()
Temperatura mínima 44 ° F - - ()
Degree Days  
Grados día de calefacción 6    
Growing Degree Days 10 (Base 50)    
Moisture  
Punto de rocío 27 ° F    
Average Humidity 28    
Maximum Humidity 53    
Minimum Humidity 7    
Precipitación  
Precipitación 0.00 pul - - ()
Presión al nivel del mar  
Presión al nivel del mar 30.19 pul    
Viento  
Velocidad del viento 5 mph ()    
Velocidad máxima del viento 7 mph    
Max Gust Speed -    
Visibilidad 9.0 Millas    
Eventos      
T = Trace of Precipitation, MM = Missing Value Source: Averaged Metar Reports

Daily Weather History Graph

Daily Weather History Graph

Search for Another Location

Airport or City:

Astronomía

Jan. 13, 2018 Salida Puesta
Hora real 8:24 AM CET 6:58 PM CET
Crepúsculo civil 7:59 AM CET 7:23 PM CET
Crepúsculo náutico 7:30 AM CET 7:52 PM CET
Crepúsculo astronómico 7:02 AM CET 8:20 PM CET
Luna 5:18 AM CET (1/13) 4:21 PM CET (1/13)
Horas de luz 11h 23m
Horas de luz
10h 33m
Creciente menguante, 11% of the Moon is Illuminated
Ene 13
Creciente menguante
Ene 17
Nueva
Ene 24
Cuarto creciente
Ene 31
Luna llena
Feb 7
Cuarto menguante

Hourly Weather History & Observations

Hora (CET) Temp. Vientos helados Punto de rocío Humedad Presión Visibilidad Wind Dir Velocidad del viento Velocidad de ráfagas Precip Eventos Condiciones
12:00 AM 57.2 ° F - 32.0 ° F 38% 30.24 pul - SE 6.9 mph - N/A   Despejado
1:00 AM 56 ° F - 30 ° F 25% 30.19 pul 6 mi SSE 6.9 mph - -  
2:00 AM 57.2 ° F - 32.0 ° F 38% 30.21 pul - SSE 4.6 mph - N/A   Despejado
3:00 AM 51.8 ° F - 28.4 ° F 41% 30.21 pul - SSE 3.5 mph - N/A   Despejado
4:00 AM 51 ° F - 29 ° F 29% 30.17 pul 6 mi Sur 5.8 mph - -  
4:00 AM 51.8 ° F - 28.4 ° F 41% 30.18 pul - Sur 5.8 mph - N/A   Despejado
5:00 AM 50.0 ° F - 28.4 ° F 43% 30.21 pul - Sur 5.8 mph - N/A   Despejado
6:00 AM 48.2 ° F - 28.4 ° F 46% 30.18 pul - OSO 2.3 mph - N/A   Despejado
7:00 AM 45 ° F - 27 ° F 37% 30.19 pul 6 mi OSO 2.3 mph - -  
7:00 AM 44.6 ° F - 26.6 ° F 49% 30.18 pul - OSO 2.3 mph - N/A   Despejado
8:00 AM 44.6 ° F 43.1 ° F 28.4 ° F 53% 30.21 pul - Oeste 3.5 mph - N/A   Despejado
9:00 AM 46.4 ° F 43.5 ° F 26.6 ° F 46% 30.21 pul - ONO 5.8 mph - N/A   Despejado
10:00 AM 50 ° F - 22 ° F 21% 30.24 pul 12 mi NO 4.6 mph - -   Despejado
10:00 AM 50.0 ° F - 23.0 ° F 35% 30.24 pul - NO 4.6 mph - N/A   Despejado
11:00 AM 59.0 ° F - 26.6 ° F 29% 30.27 pul - SSE 3.5 mph - N/A   Despejado
12:00 PM 66.2 ° F - 28.4 ° F 24% 30.27 pul - Sur 2.3 mph - N/A   Despejado
1:00 PM 67 ° F - 29 ° F 14% 30.25 pul 12 mi SSE 5.8 mph - -  
1:00 PM 68.0 ° F - 28.4 ° F 23% 30.27 pul - SSE 5.8 mph - N/A   Despejado
2:00 PM 71.6 ° F - 28.4 ° F 20% 30.21 pul - Sur 6.9 mph - N/A   Despejado
3:00 PM 73.4 ° F - 26.6 ° F 18% 30.18 pul - SSO 6.9 mph - N/A   Despejado
4:00 PM 75 ° F - 24 ° F 7% 30.14 pul 12 mi Sur 6.9 mph - -  
4:00 PM 75.2 ° F - 24.8 ° F 15% 30.15 pul - Sur 6.9 mph - N/A   Despejado
5:00 PM 75.2 ° F - 24.8 ° F 15% 30.15 pul - SSO 4.6 mph - N/A   Despejado
6:00 PM 75.2 ° F - 23.0 ° F 14% 30.15 pul - SO 4.6 mph - N/A   Despejado
7:00 PM 70 ° F - 27 ° F 10% 30.14 pul 9 mi SO 6.9 mph - -   Despejado
7:00 PM 69.8 ° F - 26.6 ° F 20% 30.15 pul - SO 6.9 mph - N/A   Despejado
8:00 PM 68.0 ° F - 23.0 ° F 18% 30.15 pul - SO 6.9 mph - N/A   Despejado
9:00 PM 64.4 ° F - 30.2 ° F 28% 30.15 pul - Sur 5.8 mph - N/A   Despejado
10:00 PM 62 ° F - 27 ° F 16% 30.17 pul 9 mi Sur 6.9 mph - -   Despejado
10:00 PM 60.8 ° F - 26.6 ° F 27% 30.18 pul - Sur 6.9 mph - N/A   Despejado
11:00 PM 59.0 ° F - 26.6 ° F 29% 30.18 pul - Sur 6.9 mph - N/A   Despejado